Voltar ao catálogo

FLOCK 4BE 1

AtivoCiênciaSSO
NORAD 60518·PAYLOAD·🇺🇸 United States

Lançado Aug 16, 2024 de Vandenberg Space Force Base

Loading…

Próximas Passagens (próximas 24 horas)

TLE

AtualizadoSource: CelesTrak SupGP

Época: Sep 14, 2026, 18:45 UTC

1 60518C 24149AL  26257.78145833  .00038479  00000+0  79475-3 0  2573
2 60518  97.3724 344.0911 0002981 338.8886 215.8832 15.45838123    10

Acompanhe FLOCK 4BE 1 em tempo real com AllMySat

Download on the App Store